Dewpoint
53 54 54 54 55 55 56 56 57 57 58 58 58 58 59 59 57 50 34 54 62 69 71 64 63 55 55 50 43 46 49 49 50 54 49 48 45 50 47 44 49 55 54 56 56
53 54 54 54 55 55 56 56 57 57 57 57 57 58 59 59 49 34 52 62 65 68 62 55 45 44 42 37 39 42 44 38 44 53 45 45 44 50 47 50 51 55 55 55 55
52 53 53 54 54 55 56 56 56 57 57 57 57 58 59 58 42 37 54 62 65 68 59 56 39 39 35 35 36 38 37 36 37 41 48 49 46 52 45 50 51 54 55 55 54
52 53 53 54 54 55 55 56 56 56 56 56 57 58 59 51 31 44 53 61 68 60 59 44 37 36 35 33 34 36 34 35 37 38 43 43 44 43 48 45 53 55 57 56 54
52 52 53 54 55 55 55 56 55 56 56 56 57 58 49 39 29 49 56 64 61 57 55 39 33 34 34 31 33 31 30 32 37 38 47 55 56 54 46 49 56 56 57 57 56
52 53 54 54 54 55 55 55 55 55 56 56 57 58 49 32 30 52 40 49 48 50 47 38 33 32 32 31 31 30 27 32 37 41 54 51 50 54 51 51 54 56 56 57 57
52 53 54 54 54 55 55 55 55 55 55 57 58 52 37 30 28 40 43 44 46 49 38 35 34 31 31 29 30 31 26 31 36 35 53 46 48 52 52 52 53 55 57 57 57
53 54 54 54 54 55 55 55 54 55 57 59 58 47 34 24 25 31 43 43 43 46 42 34 30 32 33 31 29 28 26 30 35 34 31 42 39 47 52 51 53 54 56 57 57
53 54 54 54 54 55 54 53 54 56 59 57 49 42 21 17 16 23 33 39 42 43 40 34 31 34 34 31 27 29 24 31 27 31 29 27 29 48 49 46 52 54 55 57 57
54 54 54 54 53 53 52 53 53 56 56 47 40 31 20 15 10 18 26 27 29 29 31 31 31 30 29 26 24 27 31 31 27 28 28 27 25 34 43 46 50 53 54 56 57
54 54 53 53 53 53 51 47 43 43 43 27 24 15 12 13 14 17 24 25 24 28 30 30 27 27 27 26 27 26 24 26 27 27 27 27 26 26 28 40 46 53 53 55 56
54 53 53 53 53 52 50 44 36 36 31 27 27 13 22 20 17 17 21 22 23 20 20 22 23 22 23 24 24 23 25 25 27 27 26 26 27 27 26 32 37 47 54 54 56
53 53 53 52 52 50 43 40 35 33 30 25 17 18 18 19 17 9 14 18 17 16 15 14 14 17 14 15 18 21 18 17 19 22 24 23 25 28 27 26 32 37 52 54 56
53 53 52 51 47 42 38 38 35 35 32 21 14 14 15 15 12 15 12 14 13 12 11 9 11 10 9 9 15 13 13 15 15 16 16 19 20 21 21 24 29 32 38 50 53
52 52 52 51 42 37 40 34 35 34 27 20 15 20 17 14 14 14 13 11 8 7 7 5 6 7 5 3 5 10 10 9 12 12 15 12 15 19 20 23 20 29 35 27 53
52 51 51 46 45 39 37 35 33 26 20 17 19 15 13 10 15 14 11 8 8 7 7 5 6 3 2 4 5 4 4 9 7 7 6 6 8 13 17 21 21 26 24 34 34
51 51 50 47 37 36 36 34 24 22 21 18 16 10 14 9 13 12 11 6 5 5 5 6 5 5 4 4 3 4 2 1 4 3 3 5 6 13 19 16 15 16 16 30 40
51 50 49 43 39 37 36 31 25 16 15 16 16 13 10 10 9 8 10 8 8 6 5 4 4 7 3 4 1 2 3 -1 2 3 4 7 9 14 18 15 12 11 14 32 34
51 48 45 38 38 37 35 26 17 19 18 18 15 14 12 10 11 10 9 10 10 10 6 4 7 8 8 7 5 3 1 5 1 2 -1 1 8 19 15 14 13 12 21 20 30
48 41 36 36 36 35 30 26 20 24 24 20 14 13 14 14 11 10 11 11 10 11 12 7 6 11 11 7 5 4 4 -1 -0 1 2 2 7 8 14 12 18 18 19 23 26
46 40 35 33 34 31 25 21 18 23 26 20 15 14 15 15 14 11 11 13 14 18 16 15 12 9 10 10 10 7 6 4 1 2 2 4 6 16 20 17 16 16 25 32 32
44 41 35 33 28 25 22 20 22 24 25 24 25 25 18 15 16 14 14 15 20 21 23 19 16 12 13 13 13 12 7 9 3 2 4 3 5 19 19 18 17 27 33 40 38
46 41 33 29 25 22 21 20 25 22 24 21 21 20 21 19 18 19 16 27 27 25 31 29 26 18 11 12 15 12 14 14 9 4 5 4 6 12 19 19 24 31 35 42 46
45 33 33 30 31 36 30 21 23 24 26 24 25 24 21 22 22 22 22 23 25 26 33 30 26 24 16 15 20 22 22 21 12 7 5 5 5 15 18 19 28 31 35 41 43
41 39 36 27 25 28 28 25 19 23 24 24 23 23 24 21 22 21 22 23 26 34 30 28 22 20 18 18 18 17 21 22 21 21 16 12 11 17 29 33 32 32 36 41 45
41 37 36 36 33 29 28 27 27 22 24 23 24 25 24 24 26 27 27 28 22 31 29 32 28 23 23 22 21 19 21 22 21 21 20 18 17 16 27 30 32 35 39 41 46
40 40 33 30 25 26 23 25 25 25 29 27 29 28 27 32 33 31 31 30 27 26 26 26 25 23 22 23 23 25 23 22 24 19 19 18 22 24 23 34 31 36 37 43 45
Wind_Speed
15 16 16 16 15 16 16 16 17 17 18 18 18 19 19 22 27 5 8 5 5 19 7 12 16 12 15 18 4 8 3 8 15 16 10 14 7 15 11 16 17 16 28 31 29
16 16 16 16 16 16 16 16 17 17 18 19 19 20 20 20 10 14 5 9 15 14 8 12 8 7 16 11 2 3 2 9 17 20 13 9 14 23 15 17 20 22 26 29 27
16 16 16 16 16 16 17 17 17 18 18 19 19 20 19 17 9 3 6 8 15 13 16 21 11 15 16 2 5 7 6 8 8 8 16 6 23 21 22 7 18 21 25 25 26
16 16 16 16 17 17 17 18 18 18 18 19 19 19 20 6 2 6 7 7 11 10 13 14 12 14 9 9 4 9 8 10 5 8 8 9 5 15 11 11 23 21 24 22 24
17 16 16 17 17 17 17 17 19 19 19 19 18 17 9 8 6 8 10 8 9 9 12 11 12 13 15 7 10 9 11 12 5 6 22 43 43 38 13 9 24 22 23 22 20
17 17 17 17 18 17 18 18 20 21 19 18 16 16 6 10 6 13 11 10 11 12 12 11 9 12 11 13 10 10 13 11 4 6 25 29 10 24 6 13 20 21 21 21 21
18 18 18 18 19 18 19 20 22 21 20 17 12 7 10 10 3 4 11 12 14 13 14 7 8 11 18 14 12 13 15 10 5 10 17 28 10 18 21 11 16 19 19 20 20
18 18 18 19 20 20 20 21 22 20 18 15 8 7 8 3 3 5 10 12 14 15 13 11 11 16 12 16 14 16 13 6 11 5 5 8 9 29 34 16 15 18 19 20 20
18 19 20 20 20 21 22 22 20 16 13 9 6 7 11 5 11 11 10 12 13 12 12 9 11 15 17 17 19 17 14 7 5 3 7 11 8 23 25 16 16 17 19 21 20
18 18 19 20 20 22 27 16 6 11 8 10 14 8 10 11 11 15 11 13 11 12 12 12 14 17 18 15 16 6 2 19 1 4 9 12 14 11 22 18 18 17 18 19 20
18 18 19 20 20 20 17 5 5 6 15 9 10 7 3 2 5 9 12 11 12 11 15 16 14 17 18 16 19 15 17 15 13 13 6 9 12 12 9 17 20 21 21 22 21
17 18 20 20 20 19 9 7 8 8 7 21 11 11 2 4 10 14 15 14 16 17 16 17 21 16 16 20 16 15 17 13 16 12 9 9 12 15 20 15 17 23 25 25 25
16 17 19 21 24 9 11 13 7 9 8 16 13 12 12 9 14 15 20 18 16 17 18 19 19 17 8 15 18 12 15 15 17 18 16 12 18 22 18 9 12 16 28 26 28
17 16 16 24 6 12 12 2 7 4 7 15 11 9 9 9 14 7 19 16 17 19 16 17 20 16 19 13 14 17 16 15 11 13 15 18 20 7 8 10 16 10 6 19 28
18 17 15 8 15 7 6 5 9 5 5 13 12 7 11 13 12 10 15 17 21 18 11 18 18 18 17 19 13 18 15 13 14 18 16 17 13 11 11 13 6 6 18 6 29
17 16 17 6 8 16 7 7 7 7 4 8 10 10 16 18 9 9 9 16 12 15 19 21 18 19 14 12 14 16 18 15 14 16 17 19 18 20 15 9 5 12 4 9 3
15 14 9 11 3 5 7 9 7 9 8 11 8 14 16 15 15 10 11 13 15 11 19 19 21 21 14 13 16 13 15 16 18 19 18 19 15 17 4 5 4 7 6 1 7
14 11 11 13 12 9 8 8 9 4 5 7 12 12 14 13 15 12 13 15 18 19 20 16 14 20 16 15 14 14 13 18 15 16 19 17 12 8 3 2 5 6 18 2 10
11 6 8 11 16 10 10 12 6 7 2 4 6 10 14 16 7 11 15 14 16 20 16 18 7 10 3 3 11 15 18 20 22 19 21 23 12 7 3 3 5 12 7 3 11
5 13 12 12 13 10 11 20 13 6 9 7 8 11 12 12 11 13 11 11 17 1 5 15 17 13 8 5 13 14 14 15 16 16 17 18 21 10 14 11 10 4 9 8 9
7 8 14 13 11 10 14 18 14 3 4 8 12 11 10 13 14 15 9 9 6 2 5 14 17 17 9 8 12 12 14 15 19 16 18 16 15 18 10 13 10 2 9 14 10
9 10 15 15 12 13 18 21 3 5 6 11 7 14 8 15 5 12 12 6 9 7 4 12 12 16 19 16 18 12 15 13 11 14 19 17 19 10 9 6 7 12 11 15 8
9 6 12 13 12 17 20 11 1 13 7 9 7 10 10 10 5 9 13 12 8 2 11 15 10 13 17 15 8 11 11 13 19 23 18 18 15 9 12 5 8 12 13 13 13
7 6 8 13 17 17 17 11 12 10 12 5 8 7 8 8 14 7 11 9 9 4 8 8 19 19 20 23 4 12 17 15 15 16 17 19 20 10 19 16 18 16 11 15 11
7 7 6 15 19 19 14 4 14 11 11 5 11 12 10 11 12 13 12 14 11 14 8 9 20 21 25 25 25 22 17 18 20 20 18 21 25 6 24 23 11 14 12 10 10
12 12 10 11 4 6 2 11 11 10 6 12 11 13 11 13 11 16 11 10 13 8 8 16 16 21 23 23 24 27 26 22 24 23 25 24 21 23 9 20 14 3 10 7 11
13 16 7 9 12 10 12 9 9 10 3 9 10 7 5 11 13 14 15 13 16 10 14 15 17 19 23 24 22 23 21 20 21 27 23 27 24 22 21 11 19 7 8 11 7
Wind_Direction
349 348 346 343 341 340 338 336 334 332 330 326 326 325 326 325 314 233 266 112 188 171 214 235 234 260 255 265 200 279 181 206 172 101 350 313 88 41 41 72 64 77 135 138 145
347 346 343 341 340 336 335 334 330 329 326 325 326 325 326 326 291 260 142 126 155 166 222 240 282 288 264 270 284 282 226 17 76 146 148 228 86 88 16 11 90 93 119 135 149
345 342 340 338 337 333 331 330 328 325 323 321 321 320 320 322 277 216 168 153 174 198 265 293 304 278 298 299 11 324 15 9 29 30 156 177 100 147 142 215 105 126 134 146 152
342 339 337 337 333 330 327 325 323 320 317 315 317 319 314 281 331 94 149 161 183 223 266 280 280 294 304 10 14 319 14 337 23 55 328 66 64 78 112 56 115 136 145 154 160
339 335 335 334 330 326 324 322 317 314 310 309 314 323 320 232 257 132 139 151 176 210 255 273 301 325 332 3 326 352 340 311 8 84 51 52 343 337 87 111 116 137 149 158 167
335 332 332 330 326 324 322 319 313 308 304 304 311 316 257 248 76 144 167 171 205 212 252 266 308 339 291 311 301 337 313 297 14 58 66 87 1 13 299 119 129 143 155 164 168
331 330 330 328 323 322 320 312 307 301 297 294 302 303 263 256 352 170 175 196 216 216 259 286 333 310 316 313 2 294 284 284 7 356 135 96 84 232 254 132 143 153 161 166 176
327 328 328 325 322 319 315 309 303 295 290 286 280 265 260 117 314 236 190 202 216 239 260 314 310 295 280 280 288 267 276 270 270 350 27 139 214 237 248 156 162 163 168 170 181
326 327 326 323 322 319 315 308 297 287 275 286 252 224 246 139 217 225 216 220 213 233 252 273 283 283 284 281 273 252 273 226 334 132 5 330 293 213 205 172 166 175 177 178 186
326 325 324 322 323 322 316 288 273 301 238 236 267 258 239 237 187 200 209 241 218 230 232 238 251 258 259 251 272 300 180 290 191 345 9 322 334 156 169 167 167 185 185 186 187
323 325 322 320 321 324 332 251 215 206 223 238 180 242 112 82 81 209 200 214 242 234 239 236 243 243 255 264 280 302 301 312 315 311 332 309 313 321 241 177 177 179 192 185 194
322 322 318 318 318 318 289 259 36 336 282 224 259 252 344 283 214 226 206 213 221 233 231 251 242 246 272 286 288 300 305 293 280 282 270 287 298 292 287 187 174 194 186 191 190
322 318 318 318 317 290 239 303 334 319 261 187 213 227 217 216 237 197 197 213 224 230 248 246 253 244 262 275 276 276 267 285 291 302 303 284 276 263 253 196 199 215 187 191 183
317 314 320 320 300 241 239 30 291 320 275 157 193 219 180 217 233 235 187 216 231 248 241 257 268 264 282 262 283 277 282 292 281 295 286 285 275 234 293 236 203 222 98 207 185
311 313 317 319 313 269 43 302 318 250 264 155 139 105 179 209 107 199 172 211 236 234 240 265 252 252 268 270 281 275 296 312 305 299 276 268 278 278 247 226 236 167 189 200 175
307 309 319 231 229 264 308 302 244 236 222 154 140 192 195 216 227 128 207 219 253 259 268 263 268 283 278 284 259 258 274 271 266 263 268 260 257 270 262 192 118 172 142 105 356
300 297 286 307 253 2 297 259 223 255 134 152 177 170 195 196 232 172 197 206 227 220 244 245 242 243 234 265 267 256 265 259 260 240 244 239 227 247 54 29 8 310 344 154 135
294 289 242 240 301 260 258 234 251 282 170 131 163 170 201 194 213 195 194 227 217 259 283 288 276 206 212 225 266 264 247 256 262 283 307 307 218 203 307 322 86 293 249 74 234
298 214 233 228 222 255 242 223 235 312 60 170 215 198 200 209 243 199 219 236 234 207 248 283 331 102 34 259 245 256 258 266 273 286 285 285 305 134 212 186 221 258 93 72 1
251 216 205 155 176 213 236 248 298 34 339 312 217 211 225 187 206 249 234 229 250 168 327 284 293 296 236 146 247 262 289 286 250 251 272 285 291 276 161 143 95 324 66 61 25
242 227 129 164 185 224 230 236 263 125 287 270 264 284 251 277 197 242 246 195 200 83 258 289 281 275 160 201 260 227 231 228 266 286 288 269 258 46 165 130 118 198 65 47 12
269 260 148 167 200 225 232 247 60 278 206 267 289 297 275 260 243 242 284 5 156 233 273 260 281 284 274 248 232 222 278 303 243 248 258 285 297 109 118 126 153 89 75 55 330
261 192 163 192 220 223 226 258 91 245 246 228 254 250 288 286 282 270 255 91 88 274 28 336 278 258 260 259 272 229 250 281 277 283 286 292 283 188 104 128 115 83 84 74 38
279 162 164 209 254 281 279 198 227 255 299 244 292 297 265 261 266 252 277 148 156 256 48 306 277 292 295 305 269 279 281 294 263 282 273 266 280 154 171 187 148 139 118 99 58
253 334 347 195 220 244 283 275 219 190 220 241 252 260 243 258 256 249 243 279 169 176 208 250 262 269 275 283 291 285 276 273 282 294 288 293 299 323 52 29 61 118 106 114 92
293 348 341 276 15 326 120 255 253 242 201 216 236 267 233 270 294 315 331 299 247 145 224 246 252 257 270 276 279 283 287 293 290 286 277 284 279 286 130 133 196 248 111 92 81
9 322 280 294 266 207 244 210 232 267 39 267 332 306 284 31 355 327 332 325 315 312 296 297 294 299 293 304 307 277 278 270 290 264 265 268 277 294 299 142 163 270 236 122 104